Location: Seattle
(47.6064°N, 122.3308°W)
Time: 17:57:37
(UTC-07:00)

Tiros 1 - Pass Details

Date: 29 July 2021
Orbit: 630 x 663 km, 48.4° (Epoch: 18 September)

Event Time Altitude Azimuth Distance (km) Brightness Sun altitude
Rises 21:16:13 0° 248° (WSW) 2,974 11.1 -5.0°
Reaches altitude 10° 21:18:34 10° 247° (WSW) 2,059 10.2 -5.3°
Maximum altitude 21:23:19 76° 162° (SSE) 673 7.1 -6.0°
Drops below altitude 10° 21:28:01 10° 78° (ENE) 2,043 9.3 -6.6°
Sets 21:30:20 0° 77° (ENE) 2,948 10.2 -6.9°
